User: anonymous   Login
Location: Unspecified
(0.0000°N, 0.0000°E)
Time: 06:48:01
(UTC+00:00)
Language:

OFEQ 11 - Orbit

View from above orbital plane
View from above orbital plane
View from above satellite
View from above satellite

Ground track
Ground track

The orbit data is extracted from the following two-line orbital elements,

1 41759U 16056A   18255.43946700 0.00002500  00000-0  73281-4 0    03
2 41759 141.9452 143.8157 0020469 337.7386  22.2606 15.34054839    01
Epoch (UTC): 12 September 2018 10:32:49
Eccentricity: 0.0020469
inclination: 141.9452°
perigee height: 450 km
apogee height: 478 km
right ascension of ascending node: 143.8157°
argument of perigee: 337.7386°
revolutions per day: 15.34054839
mean anomaly at epoch: 22.2606°
orbit number at epoch: 0

The dashed part of the orbit path shows where the satellite is in the earth's shadow,  

DLR